Time,TemperatureF,DewpointF,PressureIn,WindDirection,WindDirectionDegrees,WindSpeedMPH,WindSpeedGustMPH,Humidity,HourlyPrecipIn,Conditions,Clouds,dailyrainin,SolarRadiationWatts/m^2,SoftwareType,DateUTC
2013-02-20 00:01:00,14.8,12.1,29.30,NNE,30,6.0,8.0,89,0.00,,,0.00,0,Wunderground v.1.15,2013-02-20 09:01:00,
2013-02-20 00:07:00,14.8,12.1,29.29,NNE,18,8.0,9.0,89,0.00,,,0.00,0,Wunderground v.1.15,2013-02-20 09:07:00,
2013-02-20 00:12:00,14.8,12.1,29.29,NNE,22,7.0,7.0,89,0.00,,,0.00,0,Wunderground v.1.15,2013-02-20 09:12:00,
2013-02-20 00:17:00,14.8,12.1,29.29,North,5,9.0,9.0,89,0.00,,,0.00,0,Wunderground v.1.15,2013-02-20 09:17:00,
2013-02-20 00:23:00,14.8,12.1,29.29,NE,46,6.0,7.0,89,0.00,,,0.00,0,Wunderground v.1.15,2013-02-20 09:23:00,
2013-02-20 00:28:00,14.9,12.2,29.29,NNE,22,6.0,8.0,89,0.00,,,0.00,0,Wunderground v.1.15,2013-02-20 09:28:00,
2013-02-20 00:33:00,14.9,12.5,29.28,NNW,341,5.0,7.0,90,0.00,,,0.00,0,Wunderground v.1.15,2013-02-20 09:33:00,
2013-02-20 00:38:00,15.0,12.6,29.28,NE,40,6.0,11.0,90,0.00,,,0.00,0,Wunderground v.1.15,2013-02-20 09:38:00,
2013-02-20 00:43:00,15.0,12.6,29.28,NE,40,7.0,7.0,90,0.00,,,0.00,0,Wunderground v.1.15,2013-02-20 09:43:00,
2013-02-20 00:49:00,15.0,12.6,29.28,NNE,22,7.0,9.0,90,0.00,,,0.00,0,Wunderground v.1.15,2013-02-20 09:49:00,
2013-02-20 00:54:00,15.0,12.6,29.27,NE,42,10.0,12.0,90,0.00,,,0.00,0,Wunderground v.1.15,2013-02-20 09:54:00,
2013-02-20 00:59:00,15.0,12.6,29.27,NE,50,5.0,12.0,90,0.00,,,0.00,0,Wunderground v.1.15,2013-02-20 09:59:00,
2013-02-20 01:05:00,15.0,12.6,29.27,North,5,2.0,7.0,90,0.00,,,0.00,0,Wunderground v.1.15,2013-02-20 10:05:00,
2013-02-20 01:10:00,15.0,12.6,29.27,ENE,63,9.0,9.0,90,0.00,,,0.00,0,Wunderground v.1.15,2013-02-20 10:10:00,
2013-02-20 01:15:00,15.0,12.6,29.26,NE,45,10.0,10.0,90,0.00,,,0.00,0,Wunderground v.1.15,2013-02-20 10:15:00,
2013-02-20 01:20:00,15.1,12.7,29.26,NNE,32,7.0,7.0,90,0.00,,,0.00,0,Wunderground v.1.15,2013-02-20 10:20:00,
2013-02-20 01:26:00,15.1,12.4,29.26,NE,53,9.0,14.0,89,0.00,,,0.00,0,Wunderground v.1.15,2013-02-20 10:26:00,
2013-02-20 01:31:00,15.2,12.8,29.26,NNE,22,9.0,10.0,90,0.00,,,0.00,0,Wunderground v.1.15,2013-02-20 10:31:00,
2013-02-20 01:36:00,15.2,12.8,29.26,North,5,9.0,10.0,90,0.00,,,0.00,0,Wunderground v.1.15,2013-02-20 10:36:00,
2013-02-20 01:41:00,15.3,12.9,29.26,North,11,5.0,7.0,90,0.00,,,0.00,0,Wunderground v.1.15,2013-02-20 10:41:00,
2013-02-20 01:47:00,15.3,12.9,29.25,NNE,28,10.0,10.0,90,0.00,,,0.00,0,Wunderground v.1.15,2013-02-20 10:47:00,
2013-02-20 01:53:00,15.3,12.6,29.25,NNE,30,9.0,11.0,89,0.00,,,0.00,0,Wunderground v.1.15,2013-02-20 10:53:00,
2013-02-20 01:58:00,15.2,12.8,29.25,NE,35,6.0,11.0,90,0.00,,,0.00,0,Wunderground v.1.15,2013-02-20 10:58:00,
2013-02-20 02:03:00,15.2,12.8,29.25,North,355,5.0,10.0,90,0.00,,,0.00,0,Wunderground v.1.15,2013-02-20 11:03:00,
2013-02-20 02:08:00,15.3,12.9,29.25,NE,43,9.0,12.0,90,0.00,,,0.00,0,Wunderground v.1.15,2013-02-20 11:08:00,
2013-02-20 02:13:00,15.2,12.8,29.24,NNE,19,6.0,14.0,90,0.00,,,0.00,0,Wunderground v.1.15,2013-02-20 11:13:00,
2013-02-20 02:18:00,15.2,12.8,29.24,NE,40,7.0,14.0,90,0.00,,,0.00,0,Wunderground v.1.15,2013-02-20 11:18:00,
2013-02-20 02:23:00,15.2,12.8,29.24,NE,40,7.0,8.0,90,0.00,,,0.00,0,Wunderground v.1.15,2013-02-20 11:23:00,
2013-02-20 02:28:00,15.2,12.8,29.24,NNE,30,3.0,10.0,90,0.00,,,0.00,0,Wunderground v.1.15,2013-02-20 11:28:00,
2013-02-20 02:33:00,15.2,12.8,29.23,NE,45,8.0,12.0,90,0.00,,,0.00,0,Wunderground v.1.15,2013-02-20 11:33:00,
2013-02-20 02:38:00,15.2,12.8,29.23,NE,42,9.0,12.0,90,0.00,,,0.00,0,Wunderground v.1.15,2013-02-20 11:38:00,
2013-02-20 02:43:00,15.3,12.9,29.23,North,355,1.0,8.0,90,0.00,,,0.00,0,Wunderground v.1.15,2013-02-20 11:43:00,
2013-02-20 02:48:00,15.3,12.9,29.23,North,11,5.0,10.0,90,0.00,,,0.00,0,Wunderground v.1.15,2013-02-20 11:48:00,
2013-02-20 02:53:00,15.4,13.0,29.22,NE,42,3.0,12.0,90,0.00,,,0.00,0,Wunderground v.1.15,2013-02-20 11:53:00,
2013-02-20 02:58:00,15.4,13.0,29.22,NNE,28,7.0,14.0,90,0.00,,,0.00,0,Wunderground v.1.15,2013-02-20 11:58:00,
2013-02-20 03:03:00,15.5,13.1,29.22,NE,49,9.0,11.0,90,0.00,,,0.00,0,Wunderground v.1.15,2013-02-20 12:03:00,
2013-02-20 03:08:00,15.5,13.1,29.22,NNE,31,8.0,11.0,90,0.00,,,0.00,0,Wunderground v.1.15,2013-02-20 12:08:00,
2013-02-20 03:13:00,15.5,13.1,29.22,ENE,66,4.0,13.0,90,0.00,,,0.00,0,Wunderground v.1.15,2013-02-20 12:13:00,
2013-02-20 03:18:00,15.5,13.1,29.22,NW,309,5.0,13.0,90,0.00,,,0.00,0,Wunderground v.1.15,2013-02-20 12:18:00,
2013-02-20 03:23:00,15.6,13.2,29.21,NNE,32,9.0,11.0,90,0.00,,,0.00,0,Wunderground v.1.15,2013-02-20 12:23:00,
2013-02-20 03:28:00,15.6,13.2,29.21,NE,37,5.0,11.0,90,0.00,,,0.00,0,Wunderground v.1.15,2013-02-20 12:28:00,
2013-02-20 03:33:00,15.6,13.2,29.21,North,5,5.0,8.0,90,0.00,,,0.00,0,Wunderground v.1.15,2013-02-20 12:33:00,
2013-02-20 03:38:00,15.5,13.1,29.21,NNE,32,7.0,9.0,90,0.00,,,0.00,0,Wunderground v.1.15,2013-02-20 12:38:00,
2013-02-20 03:43:00,15.6,13.2,29.21,NNE,16,4.0,9.0,90,0.00,,,0.00,0,Wunderground v.1.15,2013-02-20 12:43:00,
2013-02-20 03:48:00,15.6,13.2,29.20,NNE,32,5.0,11.0,90,0.00,,,0.00,0,Wunderground v.1.15,2013-02-20 12:48:00,
2013-02-20 03:53:00,15.6,13.2,29.20,ENE,58,4.0,9.0,90,0.00,,,0.00,0,Wunderground v.1.15,2013-02-20 12:53:00,
2013-02-20 03:58:00,15.7,13.3,29.20,NNE,29,6.0,11.0,90,0.00,,,0.00,0,Wunderground v.1.15,2013-02-20 12:58:00,
2013-02-20 04:03:00,15.7,13.3,29.19,NE,43,8.0,8.0,90,0.00,,,0.00,0,Wunderground v.1.15,2013-02-20 13:03:00,
2013-02-20 04:08:00,15.7,13.3,29.19,NE,46,3.0,8.0,90,0.00,,,0.00,0,Wunderground v.1.15,2013-02-20 13:08:00,
2013-02-20 04:14:00,15.7,13.3,29.18,NNE,30,5.0,9.0,90,0.00,,,0.00,0,Wunderground v.1.15,2013-02-20 13:14:00,
2013-02-20 04:19:00,15.7,13.3,29.18,NE,35,8.0,9.0,90,0.00,,,0.00,0,Wunderground v.1.15,2013-02-20 13:19:00,
2013-02-20 04:24:00,15.8,13.4,29.18,North,5,6.0,8.0,90,0.00,,,0.00,0,Wunderground v.1.15,2013-02-20 13:24:00,
2013-02-20 04:29:00,15.8,13.4,29.18,NNE,17,5.0,10.0,90,0.00,,,0.00,0,Wunderground v.1.15,2013-02-20 13:29:00,
2013-02-20 04:34:00,15.8,13.1,29.17,NE,50,2.0,9.0,89,0.00,,,0.00,0,Wunderground v.1.15,2013-02-20 13:34:00,
2013-02-20 04:39:00,15.8,13.1,29.17,NE,49,9.0,11.0,89,0.00,,,0.00,0,Wunderground v.1.15,2013-02-20 13:39:00,
2013-02-20 04:44:00,15.9,13.2,29.17,NE,55,5.0,11.0,89,0.00,,,0.00,0,Wunderground v.1.15,2013-02-20 13:44:00,
2013-02-20 04:49:00,15.9,13.2,29.16,NE,56,2.0,12.0,89,0.00,,,0.00,0,Wunderground v.1.15,2013-02-20 13:49:00,
2013-02-20 04:54:00,15.8,13.1,29.16,NNE,21,6.0,11.0,89,0.00,,,0.00,0,Wunderground v.1.15,2013-02-20 13:54:00,
2013-02-20 04:59:00,15.8,13.1,29.16,NNE,13,5.0,11.0,89,0.00,,,0.00,0,Wunderground v.1.15,2013-02-20 13:59:00,
2013-02-20 05:04:00,15.8,13.1,29.16,NNE,13,5.0,8.0,89,0.00,,,0.00,0,Wunderground v.1.15,2013-02-20 14:04:00,
2013-02-20 05:09:00,15.8,13.4,29.15,NNE,12,6.0,8.0,90,0.00,,,0.00,0,Wunderground v.1.15,2013-02-20 14:09:00,
2013-02-20 05:14:00,15.7,13.3,29.15,North,355,4.0,9.0,90,0.00,,,0.00,0,Wunderground v.1.15,2013-02-20 14:14:00,
2013-02-20 05:19:00,15.8,13.4,29.15,NE,36,7.0,11.0,90,0.00,,,0.00,0,Wunderground v.1.15,2013-02-20 14:19:00,
2013-02-20 05:24:00,15.7,13.3,29.15,NNE,12,3.0,10.0,90,0.00,,,0.00,0,Wunderground v.1.15,2013-02-20 14:24:00,
2013-02-20 05:29:00,15.8,13.4,29.14,NNE,22,9.0,11.0,90,0.00,,,0.00,0,Wunderground v.1.15,2013-02-20 14:29:00,
2013-02-20 05:34:00,15.8,13.4,29.14,NNE,32,9.0,11.0,90,0.00,,,0.00,0,Wunderground v.1.15,2013-02-20 14:34:00,
2013-02-20 05:39:00,15.8,13.4,29.13,NE,38,7.0,11.0,90,0.00,,,0.00,0,Wunderground v.1.15,2013-02-20 14:39:00,
2013-02-20 05:44:00,15.8,13.4,29.13,NE,34,4.0,14.0,90,0.00,,,0.00,0,Wunderground v.1.15,2013-02-20 14:44:00,
2013-02-20 05:49:00,15.8,13.4,29.13,NNW,342,4.0,14.0,90,0.00,,,0.00,0,Wunderground v.1.15,2013-02-20 14:49:00,
2013-02-20 05:54:00,15.8,13.4,29.13,NNW,342,4.0,9.0,90,0.00,,,0.00,0,Wunderground v.1.15,2013-02-20 14:54:00,
2013-02-20 05:59:00,15.8,13.4,29.13,NE,37,2.0,12.0,90,0.00,,,0.00,0,Wunderground v.1.15,2013-02-20 14:59:00,
2013-02-20 06:04:00,15.9,13.5,29.12,ENE,59,5.0,9.0,90,0.00,,,0.00,0,Wunderground v.1.15,2013-02-20 15:04:00,
2013-02-20 06:10:00,15.9,13.5,29.12,ENE,63,8.0,8.0,90,0.00,,,0.00,0,Wunderground v.1.15,2013-02-20 15:10:00,
2013-02-20 06:15:00,15.9,13.5,29.12,NNE,16,8.0,8.0,90,0.00,,,0.00,0,Wunderground v.1.15,2013-02-20 15:15:00,
2013-02-20 06:20:00,16.0,13.3,29.12,NE,40,3.0,4.0,89,0.00,,,0.00,0,Wunderground v.1.15,2013-02-20 15:20:00,
2013-02-20 06:25:00,16.0,13.3,29.12,NE,35,1.0,6.0,89,0.00,,,0.00,0,Wunderground v.1.15,2013-02-20 15:25:00,
2013-02-20 06:30:00,16.1,13.4,29.11,North,10,1.0,5.0,89,0.00,,,0.00,0,Wunderground v.1.15,2013-02-20 15:30:00,
2013-02-20 06:35:00,16.1,13.4,29.11,NE,35,8.0,10.0,89,0.00,,,0.00,0,Wunderground v.1.15,2013-02-20 15:35:00,
2013-02-20 06:40:00,16.1,13.4,29.11,NE,42,7.0,8.0,89,0.00,,,0.00,0,Wunderground v.1.15,2013-02-20 15:40:00,
2013-02-20 06:45:00,16.1,13.4,29.10,NNE,20,4.0,9.0,89,0.00,,,0.00,0,Wunderground v.1.15,2013-02-20 15:45:00,
2013-02-20 06:50:00,16.1,13.4,29.10,NNE,33,6.0,7.0,89,0.00,,,0.00,0,Wunderground v.1.15,2013-02-20 15:50:00,
2013-02-20 06:55:00,16.1,13.4,29.10,ENE,64,4.0,10.0,89,0.00,,,0.00,0,Wunderground v.1.15,2013-02-20 15:55:00,
2013-02-20 07:00:00,16.2,13.5,29.10,ENE,57,3.0,6.0,89,0.00,,,0.00,0,Wunderground v.1.15,2013-02-20 16:00:00,
2013-02-20 07:05:00,16.3,13.6,29.10,ENE,59,8.0,10.0,89,0.00,,,0.00,0,Wunderground v.1.15,2013-02-20 16:05:00,
2013-02-20 07:10:00,16.4,13.5,29.10,NNE,33,6.0,9.0,88,0.00,,,0.00,0,Wunderground v.1.15,2013-02-20 16:10:00,
2013-02-20 07:15:00,16.5,13.8,29.09,NNE,33,6.0,9.0,89,0.00,,,0.00,0,Wunderground v.1.15,2013-02-20 16:15:00,
2013-02-20 07:20:00,16.6,13.9,29.09,NE,55,4.0,6.0,89,0.00,,,0.00,0,Wunderground v.1.15,2013-02-20 16:20:00,
2013-02-20 07:25:00,16.6,13.7,29.09,NE,49,4.0,8.0,88,0.00,,,0.00,0,Wunderground v.1.15,2013-02-20 16:25:00,
2013-02-20 07:30:00,16.5,13.6,29.09,North,10,2.0,5.0,88,0.00,,,0.00,0,Wunderground v.1.15,2013-02-20 16:30:00,
2013-02-20 07:35:00,16.5,13.6,29.09,ENE,66,3.0,7.0,88,0.00,,,0.00,0,Wunderground v.1.15,2013-02-20 16:35:00,
2013-02-20 07:40:00,16.4,13.5,29.08,ENE,57,3.0,5.0,88,0.00,,,0.00,0,Wunderground v.1.15,2013-02-20 16:40:00,
2013-02-20 07:45:00,16.3,13.4,29.08,ENE,65,4.0,6.0,88,0.00,,,0.00,0,Wunderground v.1.15,2013-02-20 16:45:00,
2013-02-20 07:50:00,16.1,13.2,29.08,NE,44,3.0,4.0,88,0.00,,,0.00,0,Wunderground v.1.15,2013-02-20 16:50:00,
2013-02-20 07:55:00,16.0,13.3,29.08,ENE,61,2.0,4.0,89,0.00,,,0.00,0,Wunderground v.1.15,2013-02-20 16:55:00,
2013-02-20 08:00:00,15.9,13.2,29.08,ENE,66,1.0,2.0,89,0.00,,,0.00,0,Wunderground v.1.15,2013-02-20 17:00:00,
2013-02-20 08:05:00,15.8,13.1,29.08,ENE,60,1.0,3.0,89,0.00,,,0.00,0,Wunderground v.1.15,2013-02-20 17:05:00,
2013-02-20 08:11:00,15.9,13.2,29.08,NE,39,3.0,3.0,89,0.00,,,0.00,0,Wunderground v.1.15,2013-02-20 17:11:00,
2013-02-20 08:16:00,16.0,13.3,29.08,NE,34,0.0,3.0,89,0.00,,,0.00,0,Wunderground v.1.15,2013-02-20 17:16:00,
2013-02-20 08:21:00,16.0,13.3,29.08,ENE,68,2.0,3.0,89,0.00,,,0.00,0,Wunderground v.1.15,2013-02-20 17:21:00,
2013-02-20 08:26:00,16.1,13.4,29.08,ENE,74,2.0,3.0,89,0.00,,,0.00,0,Wunderground v.1.15,2013-02-20 17:26:00,
2013-02-20 08:31:00,16.1,13.4,29.08,East,79,2.0,3.0,89,0.00,,,0.00,0,Wunderground v.1.15,2013-02-20 17:31:00,
2013-02-20 08:36:00,16.0,13.3,29.08,NE,51,3.0,3.0,89,0.00,,,0.00,5,Wunderground v.1.15,2013-02-20 17:36:00,
2013-02-20 08:41:00,16.1,13.4,29.08,NE,53,1.0,3.0,89,0.00,,,0.00,7,Wunderground v.1.15,2013-02-20 17:41:00,
2013-02-20 08:46:00,16.2,13.5,29.08,NE,53,0.0,3.0,89,0.00,,,0.00,9,Wunderground v.1.15,2013-02-20 17:46:00,
2013-02-20 08:51:00,16.2,13.5,29.08,ENE,63,2.0,2.0,89,0.00,,,0.00,11,Wunderground v.1.15,2013-02-20 17:51:00,
2013-02-20 08:56:00,16.4,13.7,29.07,ENE,62,3.0,4.0,89,0.00,,,0.00,14,Wunderground v.1.15,2013-02-20 17:56:00,
2013-02-20 09:01:00,16.4,13.7,29.08,ENE,65,1.0,4.0,89,0.00,,,0.00,21,Wunderground v.1.15,2013-02-20 18:01:00,
2013-02-20 09:06:00,16.6,13.9,29.07,NNE,22,0.0,4.0,89,0.00,,,0.00,30,Wunderground v.1.15,2013-02-20 18:06:00,
2013-02-20 09:11:00,16.6,13.9,29.07,ENE,61,0.0,2.0,89,0.00,,,0.00,42,Wunderground v.1.15,2013-02-20 18:11:00,
2013-02-20 09:16:00,16.8,14.1,29.07,NNE,33,1.0,3.0,89,0.00,,,0.00,53,Wunderground v.1.15,2013-02-20 18:16:00,
2013-02-20 09:21:00,17.0,14.3,29.07,ENE,77,2.0,3.0,89,0.00,,,0.00,53,Wunderground v.1.15,2013-02-20 18:21:00,
2013-02-20 09:26:00,17.1,14.2,29.07,ENE,75,0.0,4.0,88,0.00,,,0.00,51,Wunderground v.1.15,2013-02-20 18:26:00,
2013-02-20 09:31:00,17.2,14.3,29.07,NE,45,2.0,3.0,88,0.00,,,0.00,56,Wunderground v.1.15,2013-02-20 18:31:00,
2013-02-20 09:36:00,17.4,14.5,29.07,NE,47,3.0,6.0,88,0.00,,,0.00,58,Wunderground v.1.15,2013-02-20 18:36:00,
2013-02-20 09:41:00,17.6,14.7,29.07,NE,51,3.0,4.0,88,0.00,,,0.00,60,Wunderground v.1.15,2013-02-20 18:41:00,
2013-02-20 09:46:00,17.8,14.8,29.07,NE,53,3.0,6.0,88,0.00,,,0.00,67,Wunderground v.1.15,2013-02-20 18:46:00,
2013-02-20 09:51:00,17.9,14.9,29.07,ENE,63,2.0,4.0,88,0.00,,,0.00,67,Wunderground v.1.15,2013-02-20 18:51:00,
2013-02-20 09:56:00,18.0,15.0,29.07,ENE,57,2.0,4.0,88,0.00,,,0.00,76,Wunderground v.1.15,2013-02-20 18:56:00,
2013-02-20 10:01:00,18.1,15.1,29.08,ENE,74,3.0,5.0,88,0.00,,,0.00,72,Wunderground v.1.15,2013-02-20 19:01:00,
2013-02-20 10:07:00,18.2,15.2,29.07,ENE,67,2.0,5.0,88,0.00,,,0.00,67,Wunderground v.1.15,2013-02-20 19:07:00,
2013-02-20 10:12:00,18.2,15.0,29.07,ENE,70,1.0,3.0,87,0.00,,,0.00,84,Wunderground v.1.15,2013-02-20 19:12:00,
2013-02-20 10:17:00,18.3,15.1,29.07,ENE,63,3.0,4.0,87,0.00,,,0.00,67,Wunderground v.1.15,2013-02-20 19:17:00,
2013-02-20 10:22:00,18.5,15.3,29.07,ENE,65,4.0,4.0,87,0.00,,,0.00,72,Wunderground v.1.15,2013-02-20 19:22:00,
2013-02-20 10:27:00,18.6,15.4,29.07,NNE,24,2.0,5.0,87,0.00,,,0.00,86,Wunderground v.1.15,2013-02-20 19:27:00,
2013-02-20 10:32:00,18.8,15.6,29.07,ENE,61,1.0,5.0,87,0.00,,,0.00,91,Wunderground v.1.15,2013-02-20 19:32:00,
2013-02-20 10:37:00,18.9,15.7,29.07,ENE,69,2.0,5.0,87,0.00,,,0.00,90,Wunderground v.1.15,2013-02-20 19:37:00,
2013-02-20 10:42:00,19.0,15.8,29.07,NE,45,2.0,3.0,87,0.00,,,0.00,95,Wunderground v.1.15,2013-02-20 19:42:00,
2013-02-20 10:47:00,19.1,15.6,29.07,NE,44,3.0,5.0,86,0.00,,,0.00,107,Wunderground v.1.15,2013-02-20 19:47:00,
2013-02-20 10:53:00,19.1,15.9,29.07,NE,45,3.0,4.0,87,0.00,,,0.00,137,Wunderground v.1.15,2013-02-20 19:53:00,
2013-02-20 10:58:00,19.3,16.1,29.07,NE,46,3.0,4.0,87,0.00,,,0.00,155,Wunderground v.1.15,2013-02-20 19:58:00,
2013-02-20 11:03:00,19.4,16.2,29.07,ENE,64,2.0,4.0,87,0.00,,,0.00,174,Wunderground v.1.15,2013-02-20 20:03:00,
2013-02-20 11:08:00,19.6,16.1,29.07,ENE,64,3.0,5.0,86,0.00,,,0.00,179,Wunderground v.1.15,2013-02-20 20:08:00,
2013-02-20 11:13:00,19.7,16.2,29.07,NE,37,4.0,6.0,86,0.00,,,0.00,169,Wunderground v.1.15,2013-02-20 20:13:00,
2013-02-20 11:18:00,19.9,16.4,29.07,NE,48,3.0,6.0,86,0.00,,,0.00,158,Wunderground v.1.15,2013-02-20 20:18:00,
2013-02-20 11:23:00,20.2,16.4,29.07,NE,48,2.0,5.0,85,0.00,,,0.00,156,Wunderground v.1.15,2013-02-20 20:23:00,
2013-02-20 11:28:00,20.4,16.6,29.07,ENE,59,3.0,6.0,85,0.00,,,0.00,146,Wunderground v.1.15,2013-02-20 20:28:00,
2013-02-20 11:33:00,20.5,16.7,29.07,North,355,2.0,7.0,85,0.00,,,0.00,146,Wunderground v.1.15,2013-02-20 20:33:00,
2013-02-20 11:38:00,20.6,16.8,29.07,NE,44,0.0,7.0,85,0.00,,,0.00,156,Wunderground v.1.15,2013-02-20 20:38:00,
2013-02-20 11:43:00,20.8,17.0,29.07,NE,56,3.0,5.0,85,0.00,,,0.00,141,Wunderground v.1.15,2013-02-20 20:43:00,
2013-02-20 11:48:00,20.9,17.1,29.07,NE,44,4.0,5.0,85,0.00,,,0.00,132,Wunderground v.1.15,2013-02-20 20:48:00,
2013-02-20 11:53:00,21.1,17.3,29.07,NNE,31,2.0,5.0,85,0.00,,,0.00,134,Wunderground v.1.15,2013-02-20 20:53:00,
2013-02-20 11:58:00,21.1,17.3,29.07,NE,38,0.0,5.0,85,0.00,,,0.00,142,Wunderground v.1.15,2013-02-20 20:58:00,
2013-02-20 12:03:00,21.3,17.5,29.08,NE,50,3.0,4.0,85,0.00,,,0.00,188,Wunderground v.1.15,2013-02-20 21:03:00,
2013-02-20 12:08:00,21.6,17.8,29.07,NE,35,3.0,5.0,85,0.00,,,0.00,223,Wunderground v.1.15,2013-02-20 21:08:00,
2013-02-20 12:13:00,21.8,18.0,29.07,NNE,29,2.0,4.0,85,0.00,,,0.00,229,Wunderground v.1.15,2013-02-20 21:13:00,
2013-02-20 12:18:00,22.0,18.2,29.07,ENE,60,2.0,5.0,85,0.00,,,0.00,225,Wunderground v.1.15,2013-02-20 21:18:00,
2013-02-20 12:23:00,22.1,18.0,29.07,NE,41,2.0,4.0,84,0.00,,,0.00,209,Wunderground v.1.15,2013-02-20 21:23:00,
2013-02-20 12:28:00,22.2,18.1,29.07,NNE,29,2.0,5.0,84,0.00,,,0.00,204,Wunderground v.1.15,2013-02-20 21:28:00,
2013-02-20 12:33:00,22.4,18.3,29.07,NNE,31,1.0,5.0,84,0.00,,,0.00,193,Wunderground v.1.15,2013-02-20 21:33:00,
2013-02-20 12:38:00,22.6,18.5,29.07,ENE,57,3.0,6.0,84,0.00,,,0.00,169,Wunderground v.1.15,2013-02-20 21:38:00,
2013-02-20 12:43:00,22.6,18.2,29.07,NE,35,0.0,7.0,83,0.00,,,0.00,156,Wunderground v.1.15,2013-02-20 21:43:00,
2013-02-20 12:48:00,22.7,18.6,29.07,NNE,28,3.0,7.0,84,0.00,,,0.00,160,Wunderground v.1.15,2013-02-20 21:48:00,
2013-02-20 12:53:00,22.9,18.8,29.08,NE,34,2.0,5.0,84,0.00,,,0.00,158,Wunderground v.1.15,2013-02-20 21:53:00,
2013-02-20 12:58:00,23.1,19.0,29.08,NE,54,1.0,5.0,84,0.00,,,0.00,162,Wunderground v.1.15,2013-02-20 21:58:00,
2013-02-20 13:04:00,23.3,19.2,29.08,NE,42,2.0,3.0,84,0.00,,,0.00,165,Wunderground v.1.15,2013-02-20 22:04:00,
2013-02-20 13:09:00,23.5,19.1,29.08,NE,35,2.0,4.0,83,0.00,,,0.00,169,Wunderground v.1.15,2013-02-20 22:09:00,
2013-02-20 13:14:00,23.6,19.2,29.08,ENE,62,2.0,5.0,83,0.00,,,0.00,162,Wunderground v.1.15,2013-02-20 22:14:00,
2013-02-20 13:19:00,23.6,18.9,29.08,NE,54,3.0,5.0,82,0.00,,,0.00,169,Wunderground v.1.15,2013-02-20 22:19:00,
2013-02-20 13:24:00,23.6,18.9,29.08,ENE,67,2.0,4.0,82,0.00,,,0.00,179,Wunderground v.1.15,2013-02-20 22:24:00,
2013-02-20 13:29:00,23.6,18.9,29.08,NE,55,4.0,4.0,82,0.00,,,0.00,183,Wunderground v.1.15,2013-02-20 22:29:00,
2013-02-20 13:34:00,23.6,18.9,29.08,ENE,59,2.0,5.0,82,0.00,,,0.00,193,Wunderground v.1.15,2013-02-20 22:34:00,
2013-02-20 13:39:00,23.8,19.1,29.08,NE,43,3.0,5.0,82,0.00,,,0.00,207,Wunderground v.1.15,2013-02-20 22:39:00,
2013-02-20 13:44:00,23.9,18.9,29.08,NE,45,4.0,5.0,81,0.00,,,0.00,209,Wunderground v.1.15,2013-02-20 22:44:00,
2013-02-20 13:49:00,23.9,18.9,29.09,NNE,22,3.0,5.0,81,0.00,,,0.00,188,Wunderground v.1.15,2013-02-20 22:49:00,
2013-02-20 13:54:00,24.1,18.8,29.08,ENE,71,3.0,6.0,80,0.00,,,0.00,195,Wunderground v.1.15,2013-02-20 22:54:00,
2013-02-20 13:59:00,24.2,18.6,29.08,NE,49,2.0,6.0,79,0.00,,,0.00,176,Wunderground v.1.15,2013-02-20 22:59:00,
2013-02-20 14:04:00,24.3,18.7,29.08,NE,50,0.0,5.0,79,0.00,,,0.00,167,Wunderground v.1.15,2013-02-20 23:04:00,
2013-02-20 14:09:00,24.8,19.2,29.08,NE,51,3.0,6.0,79,0.00,,,0.00,144,Wunderground v.1.15,2013-02-20 23:09:00,
2013-02-20 14:14:00,24.8,19.2,29.08,NE,38,3.0,7.0,79,0.00,,,0.00,141,Wunderground v.1.15,2013-02-20 23:14:00,
2013-02-20 14:19:00,24.7,19.1,29.08,NE,53,3.0,7.0,79,0.00,,,0.00,146,Wunderground v.1.15,2013-02-20 23:19:00,
2013-02-20 14:24:00,24.7,18.8,29.08,NNE,25,5.0,5.0,78,0.00,,,0.00,158,Wunderground v.1.15,2013-02-20 23:24:00,
2013-02-20 14:29:00,24.8,18.9,29.08,ENE,57,1.0,5.0,78,0.00,,,0.00,149,Wunderground v.1.15,2013-02-20 23:29:00,
2013-02-20 14:34:00,24.7,18.5,29.08,NE,46,2.0,6.0,77,0.00,,,0.00,165,Wunderground v.1.15,2013-02-20 23:34:00,
2013-02-20 14:39:00,24.9,18.7,29.08,ENE,70,4.0,6.0,77,0.00,,,0.00,174,Wunderground v.1.15,2013-02-20 23:39:00,
2013-02-20 14:44:00,25.1,18.6,29.08,NE,53,1.0,4.0,76,0.00,,,0.00,199,Wunderground v.1.15,2013-02-20 23:44:00,
2013-02-20 14:49:00,25.2,18.4,29.08,NNE,27,2.0,5.0,75,0.00,,,0.00,195,Wunderground v.1.15,2013-02-20 23:49:00,
2013-02-20 14:54:00,25.3,18.5,29.09,NE,48,1.0,5.0,75,0.00,,,0.00,171,Wunderground v.1.15,2013-02-20 23:54:00,
2013-02-20 14:59:00,25.2,18.4,29.09,NE,55,2.0,5.0,75,0.00,,,0.00,148,Wunderground v.1.15,2013-02-20 23:59:00,
2013-02-20 15:04:00,25.2,18.7,29.09,NE,40,4.0,4.0,76,0.00,,,0.00,120,Wunderground v.1.15,2013-02-21 00:04:00,
2013-02-20 15:09:00,25.4,18.9,29.09,ENE,66,2.0,5.0,76,0.00,,,0.00,105,Wunderground v.1.15,2013-02-21 00:09:00,
2013-02-20 15:14:00,25.5,18.7,29.09,NE,35,3.0,4.0,75,0.00,,,0.00,107,Wunderground v.1.15,2013-02-21 00:14:00,
2013-02-20 15:20:00,25.4,18.6,29.09,NE,49,3.0,3.0,75,0.00,,,0.00,118,Wunderground v.1.15,2013-02-21 00:20:00,
2013-02-20 15:25:00,25.6,18.5,29.09,NE,36,2.0,5.0,74,0.00,,,0.00,148,Wunderground v.1.15,2013-02-21 00:25:00,
2013-02-20 15:30:00,25.7,18.2,29.09,ENE,67,2.0,2.0,73,0.00,,,0.00,163,Wunderground v.1.15,2013-02-21 00:30:00,
2013-02-20 15:35:00,25.7,18.2,29.10,ENE,76,2.0,4.0,73,0.00,,,0.00,130,Wunderground v.1.15,2013-02-21 00:35:00,
2013-02-20 15:40:00,25.7,17.9,29.10,ENE,59,3.0,3.0,72,0.00,,,0.00,105,Wunderground v.1.15,2013-02-21 00:40:00,
2013-02-20 15:45:00,25.8,17.7,29.10,NE,46,0.0,3.0,71,0.00,,,0.00,90,Wunderground v.1.15,2013-02-21 00:45:00,
2013-02-20 15:50:00,25.9,17.5,29.10,NE,44,3.0,3.0,70,0.00,,,0.00,102,Wunderground v.1.15,2013-02-21 00:50:00,
2013-02-20 15:55:00,25.8,17.4,29.10,NNE,33,2.0,4.0,70,0.00,,,0.00,123,Wunderground v.1.15,2013-02-21 00:55:00,
2013-02-20 16:00:00,25.9,17.5,29.10,ENE,57,1.0,2.0,70,0.00,,,0.00,137,Wunderground v.1.15,2013-02-21 01:00:00,
2013-02-20 16:05:00,25.8,17.4,29.10,NNE,25,2.0,3.0,70,0.00,,,0.00,123,Wunderground v.1.15,2013-02-21 01:05:00,
2013-02-20 16:10:00,25.7,17.3,29.10,NE,46,3.0,3.0,70,0.00,,,0.00,113,Wunderground v.1.15,2013-02-21 01:10:00,
2013-02-20 16:15:00,25.8,17.4,29.10,NE,51,1.0,5.0,70,0.00,,,0.00,86,Wunderground v.1.15,2013-02-21 01:15:00,
2013-02-20 16:20:00,25.8,17.4,29.10,NE,37,2.0,2.0,70,0.00,,,0.00,93,Wunderground v.1.15,2013-02-21 01:20:00,
2013-02-20 16:25:00,25.9,17.5,29.10,ENE,57,1.0,4.0,70,0.00,,,0.00,88,Wunderground v.1.15,2013-02-21 01:25:00,
2013-02-20 16:30:00,26.0,17.9,29.10,NE,48,0.0,1.0,71,0.00,,,0.00,88,Wunderground v.1.15,2013-02-21 01:30:00,
2013-02-20 16:35:00,26.2,18.1,29.10,NE,49,1.0,3.0,71,0.00,,,0.00,95,Wunderground v.1.15,2013-02-21 01:35:00,
2013-02-20 16:40:00,26.3,18.2,29.11,NE,36,0.0,1.0,71,0.00,,,0.00,84,Wunderground v.1.15,2013-02-21 01:40:00,
2013-02-20 16:45:00,26.4,18.3,29.11,NE,36,1.0,1.0,71,0.00,,,0.00,86,Wunderground v.1.15,2013-02-21 01:45:00,
2013-02-20 16:50:00,26.5,18.4,29.11,NE,53,0.0,0.0,71,0.00,,,0.00,83,Wunderground v.1.15,2013-02-21 01:50:00,
2013-02-20 16:55:00,26.5,18.7,29.11,NNE,30,3.0,3.0,72,0.00,,,0.00,72,Wunderground v.1.15,2013-02-21 01:55:00,
2013-02-20 17:00:00,26.5,18.7,29.11,NE,42,0.0,1.0,72,0.00,,,0.00,60,Wunderground v.1.15,2013-02-21 02:00:00,
2013-02-20 17:05:00,26.5,18.7,29.11,NE,42,0.0,1.0,72,0.00,,,0.00,47,Wunderground v.1.15,2013-02-21 02:05:00,
2013-02-20 17:10:00,26.4,18.9,29.10,NE,44,2.0,3.0,73,0.00,,,0.00,39,Wunderground v.1.15,2013-02-21 02:10:00,
2013-02-20 17:15:00,26.4,18.9,29.11,NE,40,0.0,3.0,73,0.00,,,0.00,32,Wunderground v.1.15,2013-02-21 02:15:00,
2013-02-20 17:20:00,26.4,19.2,29.11,NE,37,1.0,2.0,74,0.00,,,0.00,28,Wunderground v.1.15,2013-02-21 02:20:00,
2013-02-20 17:25:00,26.4,19.2,29.11,NE,38,1.0,2.0,74,0.00,,,0.00,26,Wunderground v.1.15,2013-02-21 02:25:00,
2013-02-20 17:30:00,26.4,19.2,29.11,NE,41,0.0,1.0,74,0.00,,,0.00,25,Wunderground v.1.15,2013-02-21 02:30:00,
2013-02-20 17:35:00,26.3,19.1,29.11,NE,41,0.0,1.0,74,0.00,,,0.00,21,Wunderground v.1.15,2013-02-21 02:35:00,
2013-02-20 17:40:00,26.3,19.1,29.11,NE,41,0.0,0.0,74,0.00,,,0.00,18,Wunderground v.1.15,2013-02-21 02:40:00,
2013-02-20 17:45:00,26.3,19.1,29.12,NE,41,0.0,1.0,74,0.00,,,0.00,14,Wunderground v.1.15,2013-02-21 02:45:00,
2013-02-20 17:50:00,26.3,19.1,29.12,NE,41,0.0,0.0,74,0.00,,,0.00,11,Wunderground v.1.15,2013-02-21 02:50:00,
2013-02-20 17:55:00,26.2,19.4,29.12,NE,44,0.0,1.0,75,0.00,,,0.00,9,Wunderground v.1.15,2013-02-21 02:55:00,
2013-02-20 18:00:00,26.1,18.9,29.12,NE,46,0.0,1.0,74,0.00,,,0.00,7,Wunderground v.1.15,2013-02-21 03:00:00,
2013-02-20 18:05:00,26.1,18.9,29.12,ENE,61,0.0,2.0,74,0.00,,,0.00,0,Wunderground v.1.15,2013-02-21 03:05:00,
2013-02-20 18:11:00,26.1,18.9,29.12,ENE,61,0.0,0.0,74,0.00,,,0.00,0,Wunderground v.1.15,2013-02-21 03:11:00,
2013-02-20 18:16:00,26.0,18.8,29.12,ENE,61,0.0,0.0,74,0.00,,,0.00,0,Wunderground v.1.15,2013-02-21 03:16:00,
2013-02-20 18:21:00,25.8,19.0,29.13,ENE,61,0.0,0.0,75,0.00,,,0.00,0,Wunderground v.1.15,2013-02-21 03:21:00,
2013-02-20 18:26:00,25.6,19.1,29.13,ENE,61,0.0,0.0,76,0.00,,,0.00,0,Wunderground v.1.15,2013-02-21 03:26:00,
2013-02-20 18:31:00,25.5,18.7,29.13,ENE,61,0.0,0.0,75,0.00,,,0.00,0,Wunderground v.1.15,2013-02-21 03:31:00,
2013-02-20 18:36:00,25.2,18.7,29.13,ENE,61,0.0,0.0,76,0.00,,,0.00,0,Wunderground v.1.15,2013-02-21 03:36:00,
2013-02-20 18:41:00,25.0,18.8,29.14,ENE,61,0.0,0.0,77,0.00,,,0.00,0,Wunderground v.1.15,2013-02-21 03:41:00,
2013-02-20 18:46:00,24.9,19.0,29.14,ENE,61,0.0,0.0,78,0.00,,,0.00,0,Wunderground v.1.15,2013-02-21 03:46:00,
2013-02-20 18:51:00,24.8,19.2,29.14,ENE,61,0.0,0.0,79,0.00,,,0.00,0,Wunderground v.1.15,2013-02-21 03:51:00,
2013-02-20 18:56:00,24.5,18.9,29.14,ENE,61,0.0,0.0,79,0.00,,,0.00,0,Wunderground v.1.15,2013-02-21 03:56:00,
2013-02-20 19:01:00,24.3,18.7,29.14,ENE,61,0.0,0.0,79,0.00,,,0.00,0,Wunderground v.1.15,2013-02-21 04:01:00,
2013-02-20 19:06:00,24.0,18.4,29.15,ESE,102,0.0,0.0,79,0.00,,,0.00,0,Wunderground v.1.15,2013-02-21 04:06:00,
2013-02-20 19:11:00,23.7,18.4,29.15,ESE,103,0.0,0.0,80,0.00,,,0.00,0,Wunderground v.1.15,2013-02-21 04:11:00,
2013-02-20 19:16:00,23.3,18.3,29.15,ESE,103,0.0,0.0,81,0.00,,,0.00,0,Wunderground v.1.15,2013-02-21 04:16:00,
2013-02-20 19:21:00,22.9,17.9,29.15,ESE,103,0.0,0.0,81,0.00,,,0.00,0,Wunderground v.1.15,2013-02-21 04:21:00,
2013-02-20 19:26:00,22.6,17.9,29.15,ESE,103,0.0,0.0,82,0.00,,,0.00,0,Wunderground v.1.15,2013-02-21 04:26:00,
2013-02-20 19:31:00,22.5,17.8,29.15,ESE,103,0.0,0.0,82,0.00,,,0.00,0,Wunderground v.1.15,2013-02-21 04:31:00,
2013-02-20 19:36:00,22.3,17.6,29.16,ESE,103,0.0,0.0,82,0.00,,,0.00,0,Wunderground v.1.15,2013-02-21 04:36:00,
2013-02-20 19:41:00,22.0,17.3,29.16,ESE,103,0.0,0.0,82,0.00,,,0.00,0,Wunderground v.1.15,2013-02-21 04:41:00,
2013-02-20 19:46:00,21.6,17.2,29.16,ESE,103,0.0,0.0,83,0.00,,,0.00,0,Wunderground v.1.15,2013-02-21 04:46:00,
2013-02-20 19:51:00,21.2,17.1,29.16,ESE,103,0.0,0.0,84,0.00,,,0.00,0,Wunderground v.1.15,2013-02-21 04:51:00,
2013-02-20 19:56:00,20.8,16.7,29.16,ESE,103,0.0,0.0,84,0.00,,,0.00,0,Wunderground v.1.15,2013-02-21 04:56:00,
2013-02-20 20:00:00,20.6,16.8,29.16,ESE,103,0.0,0.0,85,0.00,,,0.00,0,Wunderground v.1.15,2013-02-21 05:00:00,
2013-02-20 20:05:00,20.5,17.0,29.17,ESE,103,0.0,0.0,86,0.00,,,0.00,0,Wunderground v.1.15,2013-02-21 05:05:00,
2013-02-20 20:10:00,20.4,16.9,29.17,ESE,103,0.0,0.0,86,0.00,,,0.00,0,Wunderground v.1.15,2013-02-21 05:10:00,
2013-02-20 20:15:00,20.2,16.4,29.17,ESE,103,0.0,0.0,85,0.00,,,0.00,0,Wunderground v.1.15,2013-02-21 05:15:00,
2013-02-20 20:20:00,20.1,16.9,29.17,ESE,103,0.0,0.0,87,0.00,,,0.00,0,Wunderground v.1.15,2013-02-21 05:20:00,
2013-02-20 20:25:00,20.1,16.9,29.17,ESE,103,0.0,0.0,87,0.00,,,0.00,0,Wunderground v.1.15,2013-02-21 05:25:00,
2013-02-20 20:30:00,20.1,16.6,29.17,ESE,103,0.0,0.0,86,0.00,,,0.00,0,Wunderground v.1.15,2013-02-21 05:30:00,
2013-02-20 20:35:00,20.0,16.5,29.18,ESE,103,0.0,0.0,86,0.00,,,0.00,0,Wunderground v.1.15,2013-02-21 05:35:00,
2013-02-20 20:40:00,19.9,16.4,29.18,ESE,103,0.0,0.0,86,0.00,,,0.00,0,Wunderground v.1.15,2013-02-21 05:40:00,
2013-02-20 20:45:00,19.8,16.3,29.18,ESE,103,0.0,0.0,86,0.00,,,0.00,0,Wunderground v.1.15,2013-02-21 05:45:00,
2013-02-20 20:50:00,19.6,16.1,29.18,ESE,103,0.0,0.0,86,0.00,,,0.00,0,Wunderground v.1.15,2013-02-21 05:50:00,
2013-02-20 20:55:00,19.5,16.3,29.18,SSW,198,1.0,1.0,87,0.00,,,0.00,0,Wunderground v.1.15,2013-02-21 05:55:00,
2013-02-20 21:00:00,19.4,16.2,29.18,South,181,1.0,2.0,87,0.00,,,0.00,0,Wunderground v.1.15,2013-02-21 06:00:00,
2013-02-20 21:05:00,19.5,16.3,29.18,South,180,2.0,2.0,87,0.00,,,0.00,0,Wunderground v.1.15,2013-02-21 06:05:00,
2013-02-20 21:10:00,19.6,16.4,29.18,South,176,0.0,1.0,87,0.00,,,0.00,0,Wunderground v.1.15,2013-02-21 06:10:00,
2013-02-20 21:15:00,19.5,16.0,29.18,South,175,0.0,1.0,86,0.00,,,0.00,0,Wunderground v.1.15,2013-02-21 06:15:00,
2013-02-20 21:20:00,19.1,15.3,29.19,South,175,0.0,0.0,85,0.00,,,0.00,0,Wunderground v.1.15,2013-02-21 06:20:00,
2013-02-20 21:25:00,18.6,14.8,29.19,ESE,122,1.0,2.0,85,0.00,,,0.00,0,Wunderground v.1.15,2013-02-21 06:25:00,
2013-02-20 21:30:00,18.0,14.3,29.19,ESE,122,0.0,0.0,85,0.00,,,0.00,0,Wunderground v.1.15,2013-02-21 06:30:00,
2013-02-20 21:35:00,17.6,14.4,29.19,ESE,121,1.0,3.0,87,0.00,,,0.00,0,Wunderground v.1.15,2013-02-21 06:35:00,
2013-02-20 21:40:00,17.7,15.0,29.19,SE,144,0.0,1.0,89,0.00,,,0.00,0,Wunderground v.1.15,2013-02-21 06:40:00,
2013-02-20 21:45:00,18.0,15.3,29.20,SE,144,1.0,2.0,89,0.00,,,0.00,0,Wunderground v.1.15,2013-02-21 06:45:00,
2013-02-20 21:50:00,18.4,16.0,29.20,SE,142,2.0,2.0,90,0.00,,,0.00,0,Wunderground v.1.15,2013-02-21 06:50:00,
2013-02-20 21:55:00,18.8,16.4,29.20,SE,142,0.0,2.0,90,0.00,,,0.00,0,Wunderground v.1.15,2013-02-21 06:55:00,
2013-02-20 22:00:00,19.1,16.1,29.20,SE,142,0.0,1.0,88,0.00,,,0.00,0,Wunderground v.1.15,2013-02-21 07:00:00,
2013-02-20 22:05:00,18.9,15.1,29.20,SE,142,0.0,1.0,85,0.00,,,0.00,0,Wunderground v.1.15,2013-02-21 07:05:00,
2013-02-20 22:10:00,18.5,14.7,29.20,SE,142,0.0,0.0,85,0.00,,,0.00,0,Wunderground v.1.15,2013-02-21 07:10:00,
2013-02-20 22:15:00,17.9,14.2,29.20,SE,142,1.0,1.0,85,0.00,,,0.00,0,Wunderground v.1.15,2013-02-21 07:15:00,
2013-02-20 22:20:00,17.3,13.8,29.20,SE,142,1.0,1.0,86,0.00,,,0.00,0,Wunderground v.1.15,2013-02-21 07:20:00,
2013-02-20 22:26:00,17.5,14.8,29.20,SE,142,1.0,2.0,89,0.00,,,0.00,0,Wunderground v.1.15,2013-02-21 07:26:00,
2013-02-20 22:31:00,18.0,15.6,29.21,SE,138,2.0,2.0,90,0.00,,,0.00,0,Wunderground v.1.15,2013-02-21 07:31:00,
2013-02-20 22:36:00,18.6,16.2,29.21,SE,139,0.0,2.0,90,0.00,,,0.00,0,Wunderground v.1.15,2013-02-21 07:36:00,
2013-02-20 22:41:00,18.8,15.8,29.21,SE,139,0.0,1.0,88,0.00,,,0.00,0,Wunderground v.1.15,2013-02-21 07:41:00,
2013-02-20 22:46:00,18.5,14.7,29.21,SE,139,0.0,1.0,85,0.00,,,0.00,0,Wunderground v.1.15,2013-02-21 07:46:00,
2013-02-20 22:51:00,17.9,13.9,29.21,ESE,123,0.0,0.0,84,0.00,,,0.00,0,Wunderground v.1.15,2013-02-21 07:51:00,
2013-02-20 22:56:00,17.2,13.7,29.21,ESE,123,0.0,0.0,86,0.00,,,0.00,0,Wunderground v.1.15,2013-02-21 07:56:00,
2013-02-20 23:01:00,16.8,13.3,29.21,ESE,123,0.0,0.0,86,0.00,,,0.00,0,Wunderground v.1.15,2013-02-21 08:01:00,
2013-02-20 23:06:00,16.6,13.4,29.21,ESE,123,0.0,0.0,87,0.00,,,0.00,0,Wunderground v.1.15,2013-02-21 08:06:00,
2013-02-20 23:11:00,16.5,13.6,29.21,ESE,123,0.0,0.0,88,0.00,,,0.00,0,Wunderground v.1.15,2013-02-21 08:11:00,
2013-02-20 23:16:00,16.4,13.5,29.21,ENE,72,0.0,0.0,88,0.00,,,0.00,0,Wunderground v.1.15,2013-02-21 08:16:00,
2013-02-20 23:21:00,16.1,12.9,29.22,ENE,72,0.0,0.0,87,0.00,,,0.00,0,Wunderground v.1.15,2013-02-21 08:21:00,
2013-02-20 23:26:00,15.9,13.2,29.22,East,88,2.0,2.0,89,0.00,,,0.00,0,Wunderground v.1.15,2013-02-21 08:26:00,
2013-02-20 23:31:00,16.2,13.5,29.22,East,89,0.0,1.0,89,0.00,,,0.00,0,Wunderground v.1.15,2013-02-21 08:31:00,
2013-02-20 23:36:00,16.4,14.0,29.22,East,89,0.0,1.0,90,0.00,,,0.00,0,Wunderground v.1.15,2013-02-21 08:36:00,
2013-02-20 23:41:00,16.6,14.2,29.23,East,89,0.0,0.0,90,0.00,,,0.00,0,Wunderground v.1.15,2013-02-21 08:41:00,
2013-02-20 23:46:00,16.7,14.3,29.23,ESE,102,0.0,1.0,90,0.00,,,0.00,0,Wunderground v.1.15,2013-02-21 08:46:00,
2013-02-20 23:51:00,17.0,14.8,29.23,SE,137,1.0,2.0,91,0.00,,,0.00,0,Wunderground v.1.15,2013-02-21 08:51:00,
2013-02-20 23:56:00,17.5,15.3,29.23,SE,137,0.0,2.0,91,0.00,,,0.00,0,Wunderground v.1.15,2013-02-21 08:56:00,